[[{"header":{"parameterUnit":"m.s-1","parameterCategory":1,"la1":30.2991,"la2":30.254,"lo1":-89.0895,"lo2":-89.0444,"dy":0.0017,"dx":0.0017,"nx":28,"ny":28,"refTime":"2023-04-30T15:00:00:Z","depth":0,"parameterNumber":2,"parameterNumberName":"U-component_of_WINDS"},"data":[0,0,0,0,0,0,0,0,0,0,0,0,0,0,0,0,0,0,0,0,0,0,0,0,0,0,0,0,0,0,0,0,0,0,0,0,0,0,0,0,0,0,0,0,0,0,0,0,0,0,0,0,0,0,0,0,0,0,4.977,4.9771,0,4.9838,4.9839,4.9839,4.9687,4.9682,4.9677,4.9673,4.9746,4.9753,4.9759,0,0,0,0,0,0,0,0,0,0,0,0,0,4.9513,4.9518,4.977,4.9771,4.9772,4.9838,4.9839,4.984,4.9688,4.9682,4.9676,4.967,4.9744,4.9752,4.976,0,0,0,0,0,0,0,0,0,0,0,0,0,4.9607,4.952,4.977,4.9704,4.9699,4.9837,4.9839,4.984,4.9689,4.9682,4.9674,4.9667,4.9742,4.9751,4.9761,4.9968,0,0,4.9791,4.9795,0,0,0,0,0,0,0,0,4.9602,4.9617,4.9713,4.9709,4.9703,4.9746,4.9775,4.9883,4.9691,4.9693,4.9672,4.9664,4.9753,4.9761,4.979,4.9972,4.9975,4.9792,4.9798,4.9802,4.9804,0,0,0,0,0,0,0,4.9596,4.9613,4.9797,4.9715,4.9709,4.9672,4.9677,4.9794,4.9763,4.9692,4.9681,4.9691,4.9749,4.9781,4.9791,4.9976,4.9791,4.98,4.9806,4.981,5.0328,5.0336,0,0,0,0,0,0,4.9597,4.9609,4.9795,4.9799,4.9633,4.9683,4.9688,4.974,4.9762,4.9758,4.9697,4.9684,4.9768,4.9779,4.9793,5.0035,4.9802,4.9811,4.9816,5.0321,5.033,5.0339,0,0,0,0,0,0,4.9592,4.9615,4.9792,4.9701,4.972,4.9695,4.9754,4.9745,4.9777,4.9765,4.9759,4.9736,4.9762,4.9779,4.9925,5.0035,4.9815,4.9824,5.0311,5.0323,5.0334,5.0523,0,0,0,0,0,0,4.9585,4.9614,4.9692,4.9704,4.9726,4.9923,4.9761,4.9752,4.9794,4.9777,4.98,4.9797,4.9758,4.9911,4.9934,5.0045,4.9832,5.0301,5.0317,5.0331,5.0507,5.054,5.0568,0,0,0,0,0,4.9577,4.9744,4.9697,4.972,4.9823,4.993,4.9943,4.9893,4.9804,4.9882,4.9874,4.9796,5.002,4.9927,4.9952,5.0068,5.0294,5.0312,5.033,5.0493,5.0533,5.0567,0,0,0,0,0,0,4.9749,4.9745,4.9692,4.9868,4.99,4.9904,5.0001,4.9938,4.9997,4.9979,4.9916,4.9923,5.0081,5.0089,4.9986,5.0268,5.0142,5.0165,5.0257,5.0295,5.0325,5.032,4.984,0,0,0,0,0,4.9807,4.9893,4.9885,5.0041,5.006,5.0028,5.0073,5.0032,5.0063,5.0076,5.0079,5.0114,5.0191,5.0243,5.0314,5.0507,5.0509,5.0598,5.0629,5.0654,5.0675,5.0776,5.0815,5.0397,5.0397,5.0397,0,0,4.9929,4.9937,4.9996,5.0076,5.0096,5.0187,5.0041,5.0144,5.0211,5.0092,5.0229,5.0233,5.0267,5.0436,5.0511,5.0448,5.0791,5.0677,5.0697,5.0705,5.0798,5.0838,5.0873,5.0409,5.0407,5.0405,0,0,5.0196,5.0212,5.0342,5.0365,5.0396,5.0373,5.0405,5.0418,5.0415,5.0551,5.0463,5.0542,5.0678,5.0705,5.0737,5.1012,5.0942,5.1037,5.1198,5.1296,5.1329,5.1358,5.1455,5.1491,5.1058,5.1059,5.1059,0,5.0344,5.0477,5.0418,5.0526,5.0564,5.0459,5.0591,5.0616,5.067,5.0698,5.0626,5.0791,5.0807,5.0981,5.1048,5.1077,5.1111,5.1035,5.1329,5.1357,5.1383,5.1475,5.1512,5.107,5.1069,5.1068,5.1067,0,5.0656,5.0749,5.0851,5.0903,5.0952,5.1072,5.1032,5.1089,5.1043,5.1029,5.1168,5.1183,5.1253,5.1292,5.1249,5.1459,5.1418,5.1339,5.1211,5.1435,5.1521,5.1556,5.1086,5.1082,5.1079,5.1076,0,0,5.1036,5.1052,5.109,5.1111,5.1137,5.1208,5.1323,5.139,5.144,5.148,5.1574,5.169,5.1615,5.1652,5.1611,5.1698,5.1913,5.1607,5.1606,5.1662,5.2144,5.2203,5.2245,5.1867,5.1873,5.1878,5.214,0,5.13,5.1495,5.1445,5.1639,5.1724,5.1624,5.1723,5.175,5.1739,5.181,5.1798,5.188,5.1777,5.1797,5.1879,5.187,5.2009,5.185,5.1954,5.1958,5.1948,5.2289,5.2353,5.26,5.2174,5.2179,5.2183,0,5.1634,5.1684,5.1887,5.1896,5.193,5.202,5.2076,5.2145,5.2173,5.2159,5.2198,5.214,5.2253,5.2123,5.2278,5.2171,5.221,5.2212,5.2221,5.2228,5.2084,5.2306,5.2677,5.2714,5.2235,5.2231,5.2228,0,5.1889,5.2008,5.2143,5.2165,5.218,5.2245,5.2255,5.2275,5.2318,5.2368,5.2395,5.2459,5.2493,5.2544,5.2504,5.2413,5.2665,5.2532,5.2656,5.2657,5.2713,5.271,5.3096,5.274,5.274,5.2739,5.2738,0,5.2188,5.2316,5.2258,5.2341,5.2481,5.2422,5.2562,5.256,5.2579,5.266,5.2579,5.2657,5.2599,5.2673,5.2643,5.2774,5.2791,5.2783,5.2773,5.279,5.2791,5.2815,5.2796,5.2749,5.2747,5.2745,5.2743,0,5.2497,5.2463,5.2604,5.2606,5.2609,5.2712,5.2713,5.2791,5.2772,5.2877,5.2898,5.287,5.2952,5.2917,5.3005,5.2984,5.3153,5.3121,5.3143,5.3134,5.3259,5.3248,5.3673,5.3725,5.3338,5.3341,5.3344,0,5.269,5.2786,5.2796,5.2844,5.2859,5.2937,5.298,5.2925,5.2973,5.3011,5.3084,5.3158,5.3215,5.3351,5.3339,5.3405,5.3373,5.3518,5.3383,5.3396,5.3374,5.3369,5.3377,5.3545,5.355,5.3553,5.3556,0,5.3036,5.3014,5.3078,5.3136,5.3188,5.3232,5.3269,5.3313,5.3259,5.3317,5.3399,5.3443,5.353,5.3605,5.3663,5.3673,5.3607,5.3599,5.363,5.3648,5.3657,5.3652,5.3216,5.3589,5.3586,5.3584,5.3582,5.358,5.3292,5.3371,5.339,5.3464,5.3485,5.352,5.3592,5.3582,5.3649,5.3715,5.3679,5.3774,5.3798,5.3868,5.3887,5.396,5.3904,5.395,5.3962,5.3974,5.399,5.3645,5.3971,5.397,5.3969,5.3968,5.3968,0,5.3633,5.3639,5.3707,5.376,5.3817,5.3747,5.3784,5.3837,5.3921,5.3948,5.4004,5.4098,5.4169,5.4162,5.4228,5.4288,5.4259,5.4308,5.4302,5.4305,5.4038,5.4003,5.433,5.433,5.433,5.4329,5.4329,5.4329,5.3816,5.3946,5.3926,5.4065,5.4071,5.4162,5.4188,5.422,5.4241,5.4348,5.4407,5.4401,5.4414,5.448,5.4542,5.4538,5.4566,5.4625,5.461,5.436,5.4324,5.429,5.4257,5.4632,5.4632,5.4871,5.4873,5.4875]},{"header":{"parameterUnit":"m.s-1","parameterCategory":1,"la1":30.2991,"la2":30.254,"lo1":-89.0895,"lo2":-89.0444,"dy":0.0017,"dx":0.0017,"nx":28,"ny":28,"refTime":"2023-04-30T15:00:00:Z","depth":0,"parameterNumber":3,"parameterNumberName":"V-component_of_WINDS"},"data":[0,0,0,0,0,0,0,0,0,0,0,0,0,0,0,0,0,0,0,0,0,0,0,0,0,0,0,0,0,0,0,0,0,0,0,0,0,0,0,0,0,0,0,0,0,0,0,0,0,0,0,0,0,0,0,0,0,0,1.9717,1.9717,0,1.9716,1.9716,1.9715,1.9661,1.9659,1.9658,1.9656,1.9656,1.9657,1.9658,0,0,0,0,0,0,0,0,0,0,0,0,0,1.9672,1.9673,1.9717,1.9717,1.9717,1.9716,1.9716,1.9715,1.9661,1.9659,1.9657,1.9656,1.9655,1.9657,1.9658,0,0,0,0,0,0,0,0,0,0,0,0,0,1.9683,1.9673,1.9717,1.9689,1.9687,1.9716,1.9716,1.9715,1.9661,1.9659,1.9657,1.9655,1.9655,1.9657,1.9658,1.9713,0,0,1.9664,1.9665,0,0,0,0,0,0,0,0,1.9682,1.9685,1.9693,1.9691,1.9689,1.9686,1.9699,1.9715,1.9662,1.9671,1.9656,1.9654,1.9667,1.9668,1.9673,1.9713,1.9713,1.9665,1.9666,1.9667,1.9667,0,0,0,0,0,0,0,1.9682,1.9684,1.9716,1.9694,1.9691,1.9677,1.9676,1.9702,1.9681,1.967,1.9666,1.9667,1.9666,1.9671,1.9672,1.9713,1.9665,1.9666,1.9668,1.9668,1.9798,1.98,0,0,0,0,0,0,1.9685,1.9684,1.9716,1.9716,1.968,1.968,1.9679,1.9689,1.9681,1.9678,1.9668,1.9664,1.9669,1.967,1.9672,1.9735,1.9667,1.9668,1.967,1.9796,1.9799,1.9801,0,0,0,0,0,0,1.9684,1.9688,1.9716,1.9699,1.9702,1.9683,1.9695,1.969,1.9695,1.968,1.9676,1.9678,1.9667,1.9669,1.9703,1.9734,1.9669,1.9671,1.9793,1.9797,1.98,1.9862,0,0,0,0,0,0,1.9683,1.9688,1.9709,1.97,1.9703,1.9748,1.9697,1.9692,1.9699,1.9693,1.9687,1.9684,1.9666,1.9701,1.9705,1.9736,1.9673,1.979,1.9795,1.9799,1.9857,1.9867,1.9876,0,0,0,0,0,1.9681,1.9727,1.971,1.9714,1.9728,1.975,1.9751,1.9729,1.9702,1.9722,1.9712,1.9684,1.973,1.9705,1.9709,1.9741,1.9788,1.9793,1.9798,1.9853,1.9865,1.9876,0,0,0,0,0,0,1.974,1.9725,1.9707,1.975,1.9752,1.974,1.9766,1.9743,1.9752,1.9746,1.9718,1.9717,1.9756,1.9752,1.9723,1.9793,1.9754,1.9761,1.9794,1.9806,1.9815,1.9815,1.9674,0,0,0,0,0,1.9758,1.9777,1.9763,1.9803,1.9804,1.9785,1.9794,1.9776,1.9776,1.9777,1.9769,1.9771,1.9785,1.9795,1.9808,1.9857,1.9854,1.9881,1.989,1.9898,1.9903,1.9928,1.9939,1.9818,1.9818,1.9818,0,0,1.9796,1.979,1.9803,1.9814,1.9813,1.9833,1.9786,1.9809,1.9823,1.978,1.9811,1.9806,1.9806,1.9847,1.9865,1.9845,1.9936,1.9904,1.9911,1.9912,1.9934,1.9946,1.9956,1.9821,1.9821,1.982,0,0,1.9874,1.9871,1.9904,1.9904,1.9903,1.989,1.9898,1.989,1.9884,1.9915,1.9883,1.99,1.9926,1.9927,1.9931,2.0009,1.9983,2.0014,2.0062,2.0086,2.0096,2.0104,2.0131,2.0141,2.0019,2.0019,2.002,0,1.992,1.9949,1.9924,1.9949,1.9954,1.9916,1.9949,1.995,1.9953,1.9958,1.9935,1.9967,1.9964,2.0005,2.0024,2.0028,2.0036,2.0014,2.0097,2.0105,2.0112,2.0138,2.0148,2.0023,2.0023,2.0022,2.0022,0,2.0006,2.0026,2.0052,2.0056,2.0064,2.0093,2.0073,2.0084,2.0066,2.0055,2.0087,2.0083,2.0093,2.0102,2.0084,2.014,2.0127,2.0101,2.0062,2.0128,2.0151,2.0161,2.0028,2.0027,2.0026,2.0025,0,0,2.012,2.0109,2.012,2.012,2.0116,2.0131,2.0158,2.0168,2.0179,2.0182,2.0204,2.0227,2.0202,2.0207,2.0189,2.0211,2.0272,2.0182,2.0181,2.0198,2.0332,2.0351,2.0363,2.0255,2.0257,2.0259,2.0332,0,2.0195,2.024,2.0218,2.0266,2.0284,2.0248,2.0271,2.0271,2.0262,2.0275,2.0265,2.0281,2.0248,2.0251,2.027,2.026,2.0298,2.0255,2.0275,2.0276,2.0275,2.0375,2.0395,2.0464,2.0341,2.0342,2.0343,0,2.0288,2.0295,2.0344,2.0336,2.0343,2.0364,2.0371,2.0385,2.0384,2.0376,2.0381,2.0358,2.0384,2.0345,2.038,2.0351,2.0357,2.0354,2.0356,2.0356,2.0313,2.0377,2.0486,2.0496,2.0358,2.0357,2.0356,0,2.0365,2.0387,2.0419,2.0421,2.0413,2.0429,2.0426,2.0423,2.043,2.0437,2.0441,2.0451,2.0456,2.0464,2.0445,2.0418,2.0482,2.0441,2.0475,2.0476,2.0489,2.0489,2.06,2.0496,2.0495,2.0495,2.0495,0,2.0451,2.0482,2.0454,2.0474,2.0507,2.0482,2.0517,2.051,2.0508,2.0525,2.0495,2.0512,2.0486,2.05,2.0486,2.0516,2.0519,2.0513,2.0508,2.0515,2.0515,2.0518,2.0513,2.0498,2.0497,2.0497,2.0496,0,2.0543,2.0525,2.0557,2.0547,2.0545,2.057,2.0561,2.0579,2.0567,2.059,2.0594,2.0576,2.0592,2.0573,2.0587,2.0577,2.0619,2.0607,2.0619,2.0615,2.065,2.0646,2.0766,2.078,2.0668,2.0669,2.067,0,2.0598,2.0621,2.0612,2.0622,2.0621,2.0637,2.0644,2.062,2.0629,2.063,2.0647,2.066,2.0669,2.0696,2.0684,2.0695,2.0683,2.0724,2.0684,2.069,2.0682,2.0681,2.0683,2.0732,2.0733,2.0734,2.0735,0,2.0697,2.0687,2.0698,2.0707,2.0716,2.0722,2.0725,2.0735,2.071,2.0721,2.0736,2.0743,2.0758,2.0771,2.0778,2.0775,2.0751,2.0748,2.0756,2.0763,2.0768,2.0765,2.064,2.0745,2.0744,2.0743,2.0743,2.0743,2.0771,2.0789,2.0786,2.08,2.08,2.0804,2.082,2.081,2.0822,2.0832,2.0817,2.0836,2.0835,2.0842,2.0842,2.0856,2.0839,2.0851,2.0854,2.0857,2.0862,2.0767,2.0858,2.0858,2.0857,2.0857,2.0857,0,2.0867,2.0864,2.0877,2.0882,2.0893,2.0869,2.0872,2.0882,2.0899,2.09,2.0909,2.0926,2.0939,2.0928,2.0939,2.0952,2.0942,2.0956,2.0954,2.0954,2.0877,2.0869,2.0964,2.0964,2.0964,2.0964,2.0964,2.0964,2.0919,2.0949,2.0939,2.0968,2.0964,2.0982,2.0986,2.0989,2.0989,2.101,2.102,2.1013,2.1009,2.1019,2.1029,2.1026,2.103,2.1049,2.1041,2.097,2.0959,2.0949,2.0941,2.105,2.105,2.1116,2.1117,2.1117]}]]